John G — WDF2677 — position and weather

sailwx.info

Track history (hours):
 
Tides and Currents Weather Stations Pressure Air Temp Water Temp Dewpoint Dewpoint Depression Visibility Wind Speed Wind Dir Waves Ship Positions

John G

Owner: Marquette Transportation Company Offshore LLC, Jefferson, LA. More information available from US FCC via Universal Licensing System and Coast Guard Vessel Documentation Center.

Last reported at 2014-Oct-28 13:04 UTC. Time now 2014-Nov-01 14:04 UTC.
Position N 30°02' W 090°36'.

Length 30 m; draft 3.3 m.

Type: Towing. MMSI: 367009680.

Date/timePositionNaut miles runAvg speedWind from/ knotsBaromVisibWave heightAir tempDewpointWater temp
2014-Oct-28 13:04N 30°02' W 090°36'0 0.0
2014-Oct-28 12:33N 30°02' W 090°36'0 0.0
2014-Oct-28 11:32N 30°02' W 090°36'0 0.0
2014-Oct-28 10:27N 30°02' W 090°36'0 0.0
2014-Oct-28 09:25N 30°02' W 090°36'0 0.0
2014-Oct-28 08:32N 30°02' W 090°36'0 0.0
2014-Oct-28 07:21N 30°02' W 090°36'0 0.0
2014-Oct-28 06:33N 30°02' W 090°36'0 0.0
2014-Oct-27 11:07N 30°02' W 090°36'0 0.0
2014-Oct-27 10:26N 30°02' W 090°36'0 0.0
2014-Oct-27 09:31N 30°02' W 090°36'0 0.0
2014-Oct-27 08:22N 30°02' W 090°36'0 0.0
2014-Oct-27 07:27N 30°02' W 090°36'0 0.0
2014-Oct-27 01:20N 30°02' W 090°36'0 0.0
2014-Oct-26 14:33N 30°02' W 090°36'0 0.0
2014-Oct-26 13:28N 30°02' W 090°36'0 0.0
2014-Oct-26 12:33N 30°02' W 090°36'0 0.0
2014-Oct-26 11:07N 30°02' W 090°36'0 0.0
2014-Oct-26 10:32N 30°02' W 090°36'0 0.0
2014-Oct-26 09:32N 30°02' W 090°36'0 0.0
2014-Oct-26 08:33N 30°02' W 090°36'0 0.0
2014-Oct-26 07:32N 30°02' W 090°36'0 0.0
2014-Oct-26 06:29N 30°02' W 090°36'0 0.0
2014-Oct-25 14:31N 30°02' W 090°36'0 0.0
2014-Oct-25 12:33N 30°02' W 090°36'0 0.0
2014-Oct-25 11:33N 30°02' W 090°36'0 0.0
2014-Oct-25 10:32N 30°02' W 090°36'0 0.0
2014-Oct-25 09:32N 30°02' W 090°36'0 0.1
2014-Oct-25 08:33N 30°02' W 090°36'0 0.0
2014-Oct-25 07:33N 30°02' W 090°36'0 0.0
2014-Oct-25 06:33N 30°02' W 090°36'0 0.0
2014-Oct-25 05:32N 30°02' W 090°36'0 0.0
2014-Oct-25 04:18N 30°02' W 090°36'3 0.2
2014-Oct-24 14:20N 30°03' W 090°39'0 0.0
2014-Oct-24 13:11N 30°03' W 090°39'0 0.0
2014-Oct-24 10:29N 30°03' W 090°39'0 0.4
2014-Oct-24 09:32N 30°03' W 090°39'0 0.0
2014-Oct-24 08:24N 30°03' W 090°39'0 0.0
2014-Oct-24 07:22N 30°03' W 090°39'0 0.0
2014-Oct-24 02:20N 30°03' W 090°38'15 1.0
2014-Oct-23 12:10N 29°57' W 090°23'47 1.0
2014-Oct-21 11:31N 30°19' W 091°12'25 1.1
2014-Oct-20 12:12N 30°02' W 090°50'3 5.1
2014-Oct-20 11:31N 29°59' W 090°49'6 5.5
2014-Oct-20 10:28N 30°01' W 090°43'5 5.0
2014-Oct-20 09:22N 30°02' W 090°36'23 4.6
2014-Oct-20 04:25N 29°56' W 090°11'  
Track history (hours):
 
Tides and Currents Weather Stations Pressure Air Temp Water Temp Dewpoint Dewpoint Depression Visibility Wind Speed Wind Dir Waves Ship Positions

John G

Owner: Marquette Transportation Company Offshore LLC, Jefferson, LA. More information available from US FCC via Universal Licensing System and Coast Guard Vessel Documentation Center.

Last reported at 2014-Oct-28 13:04 UTC. Time now 2014-Nov-01 14:04 UTC.
Position N 30°02' W 090°36'.

Length 30 m; draft 3.3 m.

Type: Towing. MMSI: 367009680.

Date/timePositionNaut miles runAvg speedWind from/ knotsBaromVisibWave heightAir tempDewpointWater temp
2014-Oct-28 13:04N 30°02' W 090°36'0 0.0
2014-Oct-28 12:33N 30°02' W 090°36'0 0.0
2014-Oct-28 11:32N 30°02' W 090°36'0 0.0
2014-Oct-28 10:27N 30°02' W 090°36'0 0.0
2014-Oct-28 09:25N 30°02' W 090°36'0 0.0
2014-Oct-28 08:32N 30°02' W 090°36'0 0.0
2014-Oct-28 07:21N 30°02' W 090°36'0 0.0
2014-Oct-28 06:33N 30°02' W 090°36'0 0.0
2014-Oct-27 11:07N 30°02' W 090°36'0 0.0
2014-Oct-27 10:26N 30°02' W 090°36'0 0.0
2014-Oct-27 09:31N 30°02' W 090°36'0 0.0
2014-Oct-27 08:22N 30°02' W 090°36'0 0.0
2014-Oct-27 07:27N 30°02' W 090°36'0 0.0
2014-Oct-27 01:20N 30°02' W 090°36'0 0.0
2014-Oct-26 14:33N 30°02' W 090°36'0 0.0
2014-Oct-26 13:28N 30°02' W 090°36'0 0.0
2014-Oct-26 12:33N 30°02' W 090°36'0 0.0
2014-Oct-26 11:07N 30°02' W 090°36'0 0.0
2014-Oct-26 10:32N 30°02' W 090°36'0 0.0
2014-Oct-26 09:32N 30°02' W 090°36'0 0.0
2014-Oct-26 08:33N 30°02' W 090°36'0 0.0
2014-Oct-26 07:32N 30°02' W 090°36'0 0.0
2014-Oct-26 06:29N 30°02' W 090°36'0 0.0
2014-Oct-25 14:31N 30°02' W 090°36'0 0.0
2014-Oct-25 12:33N 30°02' W 090°36'0 0.0
2014-Oct-25 11:33N 30°02' W 090°36'0 0.0
2014-Oct-25 10:32N 30°02' W 090°36'0 0.0
2014-Oct-25 09:32N 30°02' W 090°36'0 0.1
2014-Oct-25 08:33N 30°02' W 090°36'0 0.0
2014-Oct-25 07:33N 30°02' W 090°36'0 0.0
2014-Oct-25 06:33N 30°02' W 090°36'0 0.0
2014-Oct-25 05:32N 30°02' W 090°36'0 0.0
2014-Oct-25 04:18N 30°02' W 090°36'3 0.2
2014-Oct-24 14:20N 30°03' W 090°39'0 0.0
2014-Oct-24 13:11N 30°03' W 090°39'0 0.0
2014-Oct-24 10:29N 30°03' W 090°39'0 0.4
2014-Oct-24 09:32N 30°03' W 090°39'0 0.0
2014-Oct-24 08:24N 30°03' W 090°39'0 0.0
2014-Oct-24 07:22N 30°03' W 090°39'0 0.0
2014-Oct-24 02:20N 30°03' W 090°38'15 1.0
2014-Oct-23 12:10N 29°57' W 090°23'47 1.0
2014-Oct-21 11:31N 30°19' W 091°12'25 1.1
2014-Oct-20 12:12N 30°02' W 090°50'3 5.1
2014-Oct-20 11:31N 29°59' W 090°49'6 5.5
2014-Oct-20 10:28N 30°01' W 090°43'5 5.0
2014-Oct-20 09:22N 30°02' W 090°36'23 4.6
2014-Oct-20 04:25N 29°56' W 090°11'  

Dump ship's entire track history